User: anonymous   Login
Location: Unspecified
(0.0000°N, 0.0000°E)
Time: 22:31:03
(UTC+00:00)
Language:

STARLINK-30989 - Orbit

View from above orbital plane
View from above orbital plane
View from above satellite
View from above satellite

Ground track
Ground track

The orbit is defined by the following mean orbital elements,

1 58510U          26145.03092716 +.00000000 +00000-0 +31640-3 0 00005
2 58510  43.0019  32.5670 0001718 268.0967  91.9688 15.27585334    00
Epoch (UTC): 25 May 2026 00:44:32
Eccentricity: 0.0001718
inclination: 43.0019°
perigee height: 482 km
apogee height: 484 km
right ascension of ascending node: 32.5670°
argument of perigee: 268.0967°
revolutions per day: 15.27585334
mean anomaly at epoch: 91.9688°

The dashed part of the orbit path shows where the satellite is in the earth's shadow,  

DLR